MOLNIYA 3-39 1 20813U 90084A 09184.60608337 .38978363 43314-5 75671-3 0 2933 2 20813 62.3565 54.0861 4101758 271.0401 81.9584 7.58991392137973 MOLNIYA 1-80 1 21118U 91012A 09183.40204623 .00001602 00000-0 10000-3 0 6594 2 21118 62.0293 266.1183 7275036 252.7389 21.9731 2.00389487134642 MOLNIYA 3-40 1 21196U 91022A 09183.38702426 .00001415 00000-0 10000-3 0 9766 2 21196 61.8176 248.1692 7260152 255.3688 20.7576 2.00587766133940 MOLNIYA 1-81 1 21426U 91043A 09184.18697192 .00000128 00000-0 10000-3 0 1039 2 21426 62.0237 237.5454 7259071 265.9329 16.3469 2.00625125132226 MOLNIYA 3-41 1 21706U 91065A 09184.68231812 -.00000388 00000-0 -69890-4 0 3845 2 21706 62.3136 59.2891 7478692 276.1677 11.4383 2.00554688130374 MOLNIYA 3-42 1 22178U 92067A 09183.06068837 .00000118 00000-0 -90640-2 0 7229 2 22178 61.9352 191.1217 7235503 264.1664 17.1428 2.00601568122471 MOLNIYA 1-86 1 22671U 93035A 09183.12818141 .00001540 00000-0 13508-3 0 1447 2 22671 62.0415 140.9421 7306110 269.6830 14.6078 2.03224083118326 MOLNIYA 3-45 1 22729U 93049A 09184.16582536 -.00001408 00000-0 00000+0 0 8368 2 22729 62.6368 281.7956 7345176 252.8217 21.1984 2.00858805116574 MOLNIYA 1-87 1 22949U 93079A 09183.89387209 .00000506 00000-0 10000-3 0 3484 2 22949 63.8633 57.3279 7232440 249.2635 24.3072 2.00703764113836 MOLNIYA 1-88 1 23420U 94081A 09183.24143936 .00000901 00000-0 11554-3 0 9625 2 23420 62.0256 232.7858 7365246 262.4166 16.7038 2.02257009106705 MOLNIYA 3-47 1 23642U 95042A 09184.12823313 -.00000417 00000-0 10000-3 0 3915 2 23642 63.5305 38.0352 7347016 253.5803 20.6309 2.00665960101866 MOLNIYA 1-89 1 24273U 96045A 09183.34572584 .00081221 85766-6 12306-3 0 472 2 24273 62.9645 319.6080 7161000 255.4619 21.7745 2.50517189 94801 MOLNIYA 1-90 1 24960U 97054A 09184.14258228 -.00000285 00000-0 10000-3 0 4782 2 24960 63.8266 84.8075 7272344 254.1220 298.0856 2.00615966 86301 MOLNIYA 3-49 1 25379U 98040A 09183.68642006 .00000147 00000-0 54639-3 0 8878 2 25379 63.8618 52.3211 7445103 254.4234 19.1905 2.00672166 80634 MOLNIYA 1-91 1 25485U 98054A 09184.31680191 .00000201 00000-0 10000-3 0 6096 2 25485 63.8451 177.8496 6798173 260.8541 231.8390 2.00592623 78833 MOLNIYA 3-50 1 25847U 99036A 09184.29277068 .00000336 00000-0 10000-3 0 6551 2 25847 63.7415 268.8515 7022724 266.5418 18.1919 2.00599199 73176 MOLNIYA 3-51 1 26867U 01030A 09184.22748227 .00000383 00000-0 00000+0 0 8700 2 26867 64.0686 200.7912 6986842 267.0494 111.2869 2.00568678 58279 MOLNIYA 1-92 1 27707U 03011A 09184.36811481 .00000410 00000-0 65181-1 0 3094 2 27707 64.8125 204.6991 6973299 264.4574 206.7803 2.00671539 45827 MOLNIYA 3-53 1 27834U 03029A 09184.52330566 .00000248 00000-0 00000+0 0 1197 2 27834 64.8134 204.4940 6971222 265.0306 323.2666 2.00609350 44243 MOLNIYA 1-93 1 28163U 04005A 09184.11876126 .00000035 00000-0 10000-3 0 9502 2 28163 64.9133 286.3428 7195712 276.0607 221.0579 2.00666220 39351